RYR1451 LEAL-EDDG

Flight info

Callsign RYR1451
Flight time 2h 29m
Altitude 36000
Route SOPET N608 GIROM DCT NASEP DCT ENUPA DCT RLP DCT SUTAL DCT ABILU Z850 HMM
Aircraft B738/M-SDE2E3FGHIRWXY/LB1

Departure

Time 2026-04-27 18:13
Airport Alicante-Elche Miguel Hernández Airport (LEAL)

Arrival

Time 2026-04-27 20:42
Airport Münster Osnabrück Airport (EDDG)
Time Latitude Longitude Altitude Speed Heading
2026-04-27 17:39 38.28550 -0.55404 94 ft 0 kts
2026-04-27 18:00 38.28549 -0.55404 94 ft 0 kts
2026-04-27 18:00 38.28535 -0.55407 94 ft 2 kts 10°
2026-04-27 18:00 38.28525 -0.55409 94 ft 2 kts
2026-04-27 18:01 38.28509 -0.55409 94 ft 2 kts 349°
2026-04-27 18:01 38.28495 -0.55404 94 ft 2 kts 335°
2026-04-27 18:01 38.28481 -0.55393 93 ft 2 kts 320°
2026-04-27 18:01 38.28470 -0.55379 93 ft 2 kts 304°
2026-04-27 18:02 38.28463 -0.55362 92 ft 2 kts 289°
2026-04-27 18:02 38.28460 -0.55351 91 ft 1 kts 280°
2026-04-27 18:02 38.28460 -0.55343 91 ft 0 kts 278°
2026-04-27 18:02 38.28460 -0.55344 91 ft 0 kts 278°
2026-04-27 18:06 38.28461 -0.55353 91 ft 5 kts 278°
2026-04-27 18:07 38.28467 -0.55422 95 ft 9 kts 279°
2026-04-27 18:07 38.28484 -0.55532 100 ft 16 kts 281°
2026-04-27 18:07 38.28487 -0.55566 101 ft 1 kts 236°
2026-04-27 18:07 38.28437 -0.55602 100 ft 14 kts 195°
2026-04-27 18:08 38.28376 -0.55666 100 ft 12 kts 273°
2026-04-27 18:08 38.28390 -0.55772 101 ft 13 kts 281°
2026-04-27 18:08 38.28413 -0.55922 101 ft 21 kts 280°
2026-04-27 18:08 38.28441 -0.56143 105 ft 28 kts 279°
2026-04-27 18:09 38.28480 -0.56419 112 ft 34 kts 281°
2026-04-27 18:09 38.28516 -0.56656 122 ft 38 kts 282°
2026-04-27 18:09 38.28558 -0.56971 136 ft 37 kts 280°
2026-04-27 18:09 38.28601 -0.57275 146 ft 28 kts 279°
2026-04-27 18:10 38.28589 -0.57412 152 ft 12 kts 216°
2026-04-27 18:10 38.28526 -0.57439 151 ft 0 kts 191°
2026-04-27 18:11 38.28510 -0.57442 151 ft 3 kts 188°
2026-04-27 18:11 38.28472 -0.57440 150 ft 8 kts 160°
2026-04-27 18:11 38.28435 -0.57359 148 ft 4 kts 99°
2026-04-27 18:11 38.28430 -0.57322 147 ft 0 kts 98°
2026-04-27 18:12 38.28392 -0.57037 137 ft 78 kts 98°
2026-04-27 18:12 38.28241 -0.55958 98 ft 163 kts 102°
2026-04-27 18:12 38.28003 -0.54328 664 ft 191 kts 97°
2026-04-27 18:13 38.27737 -0.52636 1609 ft 200 kts 99°
2026-04-27 18:13 38.27453 -0.50807 2332 ft 214 kts 99°
2026-04-27 18:13 38.27457 -0.48764 3019 ft 230 kts 73°
2026-04-27 18:13 38.28265 -0.46881 3769 ft 245 kts 53°
2026-04-27 18:14 38.29388 -0.45096 4478 ft 260 kts 53°
2026-04-27 18:14 38.30504 -0.43160 5430 ft 265 kts 56°
2026-04-27 18:14 38.31578 -0.41140 6346 ft 271 kts 57°
2026-04-27 18:14 38.32628 -0.39030 7212 ft 278 kts 62°
2026-04-27 18:15 38.33460 -0.36725 8077 ft 284 kts 68°
2026-04-27 18:15 38.34197 -0.34306 8930 ft 290 kts 70°
2026-04-27 18:15 38.34926 -0.31863 9745 ft 296 kts 70°
2026-04-27 18:15 38.35690 -0.29344 10539 ft 302 kts 70°
2026-04-27 18:16 38.36520 -0.26695 11059 ft 319 kts 68°
2026-04-27 18:16 38.37416 -0.23985 11590 ft 334 kts 68°
2026-04-27 18:16 38.38361 -0.21181 12457 ft 336 kts 68°
2026-04-27 18:16 38.39323 -0.18319 13237 ft 342 kts 68°
2026-04-27 18:17 38.40284 -0.15443 14039 ft 346 kts 68°
2026-04-27 18:17 38.41239 -0.12575 14828 ft 349 kts 68°
2026-04-27 18:17 38.42241 -0.09655 15588 ft 353 kts 64°
2026-04-27 18:17 38.43551 -0.06881 16296 ft 358 kts 52°
2026-04-27 18:18 38.45451 -0.04634 17003 ft 363 kts 33°
2026-04-27 18:18 38.47788 -0.03217 17712 ft 366 kts 17°
2026-04-27 18:18 38.50332 -0.02513 18419 ft 368 kts
2026-04-27 18:18 38.52961 -0.02404 19086 ft 371 kts 356°
2026-04-27 18:19 38.55585 -0.02732 19753 ft 374 kts 352°
2026-04-27 18:19 38.58189 -0.03200 20443 ft 375 kts 351°
2026-04-27 18:19 38.60858 -0.03697 21082 ft 378 kts 351°
2026-04-27 18:19 38.63536 -0.04177 21680 ft 382 kts 351°
2026-04-27 18:20 38.66192 -0.04631 22309 ft 384 kts 351°
2026-04-27 18:20 38.68924 -0.05082 22920 ft 386 kts 351°
2026-04-27 18:20 38.71662 -0.05524 23482 ft 389 kts 352°
2026-04-27 18:20 38.74427 -0.05964 24048 ft 392 kts 351°
2026-04-27 18:21 38.77217 -0.06406 24607 ft 395 kts 351°
2026-04-27 18:21 38.80037 -0.06854 25133 ft 398 kts 351°
2026-04-27 18:21 38.82878 -0.07304 25671 ft 401 kts 351°
2026-04-27 18:21 38.85752 -0.07759 26194 ft 403 kts 351°
2026-04-27 18:22 38.88647 -0.08216 26667 ft 406 kts 351°
2026-04-27 18:22 38.91558 -0.08675 27200 ft 408 kts 351°
2026-04-27 18:22 38.94478 -0.09136 27630 ft 411 kts 351°
2026-04-27 18:22 38.97377 -0.09594 28145 ft 413 kts 351°
2026-04-27 18:23 39.00309 -0.10057 28607 ft 415 kts 351°
2026-04-27 18:23 39.03299 -0.10530 29005 ft 418 kts 351°
2026-04-27 18:23 39.06310 -0.11008 29472 ft 420 kts 351°
2026-04-27 18:23 39.09305 -0.11483 29891 ft 422 kts 351°
2026-04-27 18:24 39.12269 -0.11953 30286 ft 425 kts 351°
2026-04-27 18:24 39.15290 -0.12431 30710 ft 426 kts 351°
2026-04-27 18:24 39.18309 -0.12911 31108 ft 428 kts 351°
2026-04-27 18:24 39.21329 -0.13391 31484 ft 431 kts 351°
2026-04-27 18:25 39.24348 -0.13873 31865 ft 433 kts 351°
2026-04-27 18:25 39.27363 -0.14353 32234 ft 435 kts 351°
2026-04-27 18:25 39.30388 -0.14836 32614 ft 437 kts 351°
2026-04-27 18:25 39.33464 -0.15326 32905 ft 440 kts 351°
2026-04-27 18:26 39.36521 -0.15814 33311 ft 441 kts 351°
2026-04-27 18:26 39.39568 -0.16301 33583 ft 444 kts 351°
2026-04-27 18:26 39.42674 -0.16798 33943 ft 446 kts 351°
2026-04-27 18:26 39.45754 -0.17291 34312 ft 446 kts 351°
2026-04-27 18:27 39.48862 -0.17788 34764 ft 443 kts 350°
2026-04-27 18:27 39.51922 -0.18278 35093 ft 443 kts 351°
2026-04-27 18:27 39.54971 -0.18768 35434 ft 442 kts 350°
2026-04-27 18:27 39.58068 -0.19249 35756 ft 442 kts 352°
2026-04-27 18:28 39.61150 -0.19478 36007 ft 445 kts 357°
2026-04-27 18:28 39.64256 -0.19128 36043 ft 453 kts
2026-04-27 18:28 39.67294 -0.17952 36055 ft 457 kts 20°
2026-04-27 18:28 39.70127 -0.16095 36055 ft 457 kts 28°
2026-04-27 18:29 39.75270 -0.11208 36055 ft 459 kts 39°
2026-04-27 18:29 39.79892 -0.05357 36056 ft 462 kts 43°
2026-04-27 18:30 39.84786 -0.00061 36046 ft 455 kts 25°
2026-04-27 18:30 39.90687 0.02776 36054 ft 449 kts 13°
2026-04-27 18:31 39.96763 0.04828 36047 ft 448 kts 11°
2026-04-27 18:31 40.02809 0.06879 36054 ft 449 kts 12°
2026-04-27 18:32 40.08800 0.09019 36060 ft 448 kts 13°
2026-04-27 18:32 40.14868 0.11246 36074 ft 449 kts 13°
2026-04-27 18:33 40.20863 0.13471 36070 ft 449 kts 13°
2026-04-27 18:33 40.26925 0.15732 36073 ft 449 kts 13°
2026-04-27 18:34 40.32950 0.17986 36064 ft 450 kts 13°
2026-04-27 18:34 40.38981 0.20250 36061 ft 449 kts 13°
2026-04-27 18:35 40.44992 0.22509 36058 ft 449 kts 13°
2026-04-27 18:35 40.51022 0.24781 36055 ft 449 kts 13°
2026-04-27 18:36 40.57050 0.27055 36059 ft 449 kts 13°
2026-04-27 18:36 40.63064 0.29332 36067 ft 450 kts 13°
2026-04-27 18:37 40.69096 0.31619 36070 ft 450 kts 13°
2026-04-27 18:37 40.75156 0.33923 36075 ft 449 kts 13°
2026-04-27 18:38 40.81172 0.36213 36068 ft 449 kts 13°
2026-04-27 18:38 40.87217 0.38516 36059 ft 449 kts 13°
2026-04-27 18:39 40.93248 0.40820 36052 ft 449 kts 13°
2026-04-27 18:39 40.99308 0.43139 36050 ft 450 kts 13°
2026-04-27 18:40 41.05358 0.45459 36047 ft 450 kts 13°
2026-04-27 18:40 41.11450 0.47803 36039 ft 450 kts 13°
2026-04-27 18:41 41.17484 0.50128 36042 ft 450 kts 13°
2026-04-27 18:41 41.23550 0.52467 36047 ft 449 kts 13°
2026-04-27 18:42 41.28600 0.54417 36045 ft 450 kts 13°
2026-04-27 18:42 41.35688 0.57160 36054 ft 450 kts 13°
2026-04-27 18:43 41.41758 0.59515 36055 ft 450 kts 13°
2026-04-27 18:43 41.47850 0.61885 36065 ft 450 kts 13°
2026-04-27 18:44 41.53901 0.64245 36067 ft 451 kts 13°
2026-04-27 18:44 41.60020 0.66362 36073 ft 449 kts 10°
2026-04-27 18:45 41.66190 0.68030 36071 ft 449 kts
2026-04-27 18:45 41.72390 0.69679 36066 ft 449 kts
2026-04-27 18:46 41.78577 0.71376 36069 ft 449 kts
2026-04-27 18:46 41.84749 0.73100 36074 ft 449 kts
2026-04-27 18:47 41.90907 0.74835 36079 ft 450 kts
2026-04-27 18:47 41.97082 0.76582 36085 ft 451 kts
2026-04-27 18:48 42.03297 0.78349 36092 ft 451 kts 10°
2026-04-27 18:48 42.09509 0.80122 36098 ft 450 kts
2026-04-27 18:49 42.15669 0.81880 36104 ft 451 kts
2026-04-27 18:49 42.21866 0.83652 36103 ft 451 kts
2026-04-27 18:50 42.28061 0.85425 36115 ft 451 kts
2026-04-27 18:50 42.34197 0.87186 36134 ft 451 kts
2026-04-27 18:51 42.40357 0.88958 36140 ft 452 kts
2026-04-27 18:51 42.46539 0.90739 36152 ft 452 kts
2026-04-27 18:52 42.52697 0.92517 36166 ft 452 kts
2026-04-27 18:53 42.61981 0.95203 36160 ft 453 kts
2026-04-27 18:53 42.68168 0.96997 36156 ft 453 kts 10°
2026-04-27 18:54 42.74377 0.98871 36153 ft 454 kts 12°
2026-04-27 18:54 42.80389 1.01687 36147 ft 458 kts 21°
2026-04-27 18:55 42.86139 1.05474 36139 ft 458 kts 25°
2026-04-27 18:55 42.91838 1.09468 36127 ft 458 kts 25°
2026-04-27 18:56 42.97537 1.13462 36114 ft 459 kts 25°
2026-04-27 18:56 43.03244 1.17443 36098 ft 458 kts 25°
2026-04-27 18:57 43.08957 1.21420 36090 ft 460 kts 25°
2026-04-27 18:57 43.14692 1.25416 36086 ft 459 kts 25°
2026-04-27 18:58 43.20371 1.29380 36083 ft 459 kts 25°
2026-04-27 18:58 43.26110 1.33389 36074 ft 460 kts 25°
2026-04-27 18:59 43.31858 1.37414 36075 ft 460 kts 25°
2026-04-27 18:59 43.37603 1.41450 36070 ft 459 kts 25°
2026-04-27 19:00 43.43180 1.45379 36067 ft 440 kts 24°
2026-04-27 19:00 43.48626 1.49216 36068 ft 435 kts 24°
2026-04-27 19:01 43.54104 1.53079 36065 ft 438 kts 24°
2026-04-27 19:01 43.59547 1.56929 36063 ft 437 kts 24°
2026-04-27 19:02 43.64993 1.60786 36063 ft 437 kts 24°
2026-04-27 19:02 43.70423 1.64650 36060 ft 437 kts 25°
2026-04-27 19:03 43.75827 1.68496 36060 ft 437 kts 25°
2026-04-27 19:03 43.81249 1.72360 36057 ft 437 kts 25°
2026-04-27 19:04 43.86672 1.76235 36061 ft 438 kts 25°
2026-04-27 19:04 43.92152 1.80159 36063 ft 437 kts 25°
2026-04-27 19:05 43.97605 1.84073 36066 ft 437 kts 25°
2026-04-27 19:05 44.03064 1.87998 36068 ft 437 kts 25°
2026-04-27 19:06 44.08509 1.91923 36067 ft 437 kts 25°
2026-04-27 19:06 44.13959 1.95858 36071 ft 437 kts 25°
2026-04-27 19:07 44.19478 1.99853 36075 ft 438 kts 25°
2026-04-27 19:07 44.24976 2.03840 36079 ft 438 kts 25°
2026-04-27 19:08 44.30505 2.07859 36080 ft 438 kts 25°
2026-04-27 19:08 44.36012 2.11865 36076 ft 438 kts 25°
2026-04-27 19:09 44.41493 2.15867 36073 ft 438 kts 25°
2026-04-27 19:09 44.47023 2.19913 36071 ft 439 kts 25°
2026-04-27 19:10 44.52564 2.23849 36068 ft 439 kts 21°
2026-04-27 19:10 44.58292 2.27135 36073 ft 436 kts 18°
2026-04-27 19:11 44.64072 2.30232 36076 ft 436 kts 17°
2026-04-27 19:11 44.69786 2.33329 36080 ft 436 kts 18°
2026-04-27 19:12 44.75557 2.36497 36085 ft 436 kts 18°
2026-04-27 19:12 44.81316 2.39680 36091 ft 437 kts 18°
2026-04-27 19:13 44.87087 2.42886 36102 ft 437 kts 18°
2026-04-27 19:13 44.92827 2.46082 36109 ft 437 kts 18°
2026-04-27 19:14 44.98605 2.49306 36109 ft 437 kts 18°
2026-04-27 19:14 45.04345 2.52517 36107 ft 437 kts 18°
2026-04-27 19:15 45.10122 2.55756 36111 ft 437 kts 18°
2026-04-27 19:15 45.15853 2.58978 36120 ft 437 kts 18°
2026-04-27 19:16 45.21639 2.62237 36121 ft 438 kts 18°
2026-04-27 19:16 45.27430 2.65504 36121 ft 438 kts 18°
2026-04-27 19:17 45.33217 2.68779 36128 ft 438 kts 18°
2026-04-27 19:17 45.38983 2.72049 36128 ft 437 kts 18°
2026-04-27 19:18 45.44724 2.75312 36132 ft 437 kts 18°
2026-04-27 19:18 45.50485 2.78594 36133 ft 437 kts 18°
2026-04-27 19:19 45.56293 2.81907 36126 ft 439 kts 18°
2026-04-27 19:19 45.62041 2.85196 36126 ft 438 kts 18°
2026-04-27 19:20 45.67831 2.88516 36126 ft 438 kts 18°
2026-04-27 19:20 45.73589 2.91826 36119 ft 437 kts 18°
2026-04-27 19:21 45.79366 2.95153 36118 ft 437 kts 18°
2026-04-27 19:21 45.85154 2.98492 36115 ft 438 kts 18°
2026-04-27 19:22 45.90963 3.01852 36112 ft 438 kts 18°
2026-04-27 19:22 45.96709 3.05186 36100 ft 440 kts 18°
2026-04-27 19:23 46.02551 3.08580 36092 ft 439 kts 18°
2026-04-27 19:23 46.08352 3.11959 36091 ft 440 kts 18°
2026-04-27 19:24 46.14119 3.15324 36086 ft 439 kts 18°
2026-04-27 19:24 46.19867 3.18687 36085 ft 439 kts 18°
2026-04-27 19:25 46.25683 3.22096 36086 ft 441 kts 18°
2026-04-27 19:25 46.31483 3.25504 36081 ft 440 kts 18°
2026-04-27 19:26 46.37308 3.28933 36085 ft 440 kts 17°
2026-04-27 19:26 46.43087 3.32347 36086 ft 441 kts 17°
2026-04-27 19:27 46.48913 3.35795 36090 ft 440 kts 17°
2026-04-27 19:27 46.54631 3.39187 36087 ft 441 kts 17°
2026-04-27 19:28 46.60386 3.42614 36086 ft 442 kts 18°
2026-04-27 19:28 46.65899 3.46995 36084 ft 449 kts 32°
2026-04-27 19:29 46.70701 3.53008 36082 ft 452 kts 40°
2026-04-27 19:29 46.75297 3.59482 36081 ft 453 kts 40°
2026-04-27 19:30 46.79853 3.65923 36085 ft 454 kts 41°
2026-04-27 19:30 46.84420 3.72342 36084 ft 454 kts 40°
2026-04-27 19:31 46.89005 3.78769 36086 ft 454 kts 40°
2026-04-27 19:31 46.93634 3.85259 36086 ft 454 kts 40°
2026-04-27 19:32 46.98235 3.91717 36095 ft 455 kts 40°
2026-04-27 19:32 47.02847 3.98204 36097 ft 454 kts 40°
2026-04-27 19:33 47.07422 4.04656 36096 ft 454 kts 40°
2026-04-27 19:33 47.12007 4.11143 36090 ft 455 kts 40°
2026-04-27 19:34 47.16585 4.17632 36083 ft 454 kts 40°
2026-04-27 19:34 47.21166 4.24137 36086 ft 454 kts 40°
2026-04-27 19:35 47.25742 4.30652 36089 ft 455 kts 40°
2026-04-27 19:35 47.30287 4.37136 36088 ft 455 kts 40°
2026-04-27 19:36 47.34854 4.43674 36089 ft 456 kts 40°
2026-04-27 19:36 47.39408 4.50212 36085 ft 455 kts 40°
2026-04-27 19:37 47.43940 4.56729 36085 ft 454 kts 40°
2026-04-27 19:37 47.48498 4.63303 36094 ft 455 kts 40°
2026-04-27 19:38 47.53057 4.69885 36094 ft 457 kts 40°
2026-04-27 19:38 47.57579 4.76443 36096 ft 455 kts 40°
2026-04-27 19:39 47.62113 4.83036 36093 ft 456 kts 40°
2026-04-27 19:39 47.66665 4.89666 36097 ft 456 kts 40°
2026-04-27 19:40 47.71244 4.96354 36098 ft 456 kts 40°
2026-04-27 19:40 47.75794 5.03029 36099 ft 455 kts 40°
2026-04-27 19:41 47.80346 5.09705 36103 ft 457 kts 40°
2026-04-27 19:41 47.84861 5.16342 36101 ft 455 kts 40°
2026-04-27 19:42 47.89462 5.22885 36101 ft 453 kts 36°
2026-04-27 19:42 47.94658 5.28066 36105 ft 444 kts 21°
2026-04-27 19:43 48.00229 5.32044 36102 ft 442 kts 18°
2026-04-27 19:43 48.05858 5.35869 36102 ft 441 kts 18°
2026-04-27 19:44 48.11450 5.39746 36100 ft 445 kts 19°
2026-04-27 19:44 48.17062 5.43737 36105 ft 442 kts 19°
2026-04-27 19:45 48.22593 5.47694 36111 ft 442 kts 19°
2026-04-27 19:45 48.28149 5.51660 36103 ft 441 kts 19°
2026-04-27 19:46 48.33711 5.55654 36111 ft 443 kts 19°
2026-04-27 19:46 48.39301 5.59681 36110 ft 441 kts 19°
2026-04-27 19:47 48.44926 5.63754 36107 ft 443 kts 19°
2026-04-27 19:47 48.50528 5.67828 36102 ft 439 kts 20°
2026-04-27 19:48 48.56016 5.71817 36108 ft 436 kts 19°
2026-04-27 19:48 48.61470 5.75790 36108 ft 438 kts 20°
2026-04-27 19:49 48.66961 5.79813 36109 ft 438 kts 20°
2026-04-27 19:49 48.69706 5.81810 35935 ft 443 kts 20°
2026-04-27 19:49 48.72482 5.83835 35715 ft 443 kts 20°
2026-04-27 19:49 48.75246 5.85861 35490 ft 441 kts 20°
2026-04-27 19:50 48.78006 5.87893 35259 ft 440 kts 20°
2026-04-27 19:50 48.80781 5.89945 35122 ft 438 kts 19°
2026-04-27 19:50 48.83549 5.91992 35108 ft 439 kts 19°
2026-04-27 19:51 48.89097 5.96095 35115 ft 446 kts 19°
2026-04-27 19:51 48.94732 6.00251 35111 ft 441 kts 19°
2026-04-27 19:52 49.00283 6.04367 35120 ft 441 kts 19°
2026-04-27 19:52 49.05812 6.08473 35118 ft 441 kts 19°
2026-04-27 19:53 49.14087 6.14664 35112 ft 442 kts 19°
2026-04-27 19:53 49.19597 6.18758 35113 ft 441 kts 19°
2026-04-27 19:54 49.25131 6.22921 35117 ft 442 kts 20°
2026-04-27 19:54 49.30696 6.27116 35120 ft 441 kts 19°
2026-04-27 19:55 49.36240 6.31270 35120 ft 440 kts 19°
2026-04-27 19:55 49.41775 6.35431 35124 ft 440 kts 20°
2026-04-27 19:56 49.47322 6.39627 35122 ft 441 kts 20°
2026-04-27 19:56 49.52895 6.43903 35126 ft 441 kts 20°
2026-04-27 19:57 49.58398 6.48155 35124 ft 440 kts 20°
2026-04-27 19:57 49.63941 6.52448 35126 ft 441 kts 20°
2026-04-27 19:58 49.69458 6.56723 35128 ft 441 kts 20°
2026-04-27 19:58 49.74942 6.60984 35128 ft 440 kts 20°
2026-04-27 19:59 49.80440 6.65240 35125 ft 440 kts 21°
2026-04-27 19:59 49.85325 6.69057 35135 ft 442 kts 21°
2026-04-27 20:00 49.90611 6.73202 35134 ft 441 kts 20°
2026-04-27 20:00 49.96077 6.77507 35134 ft 442 kts 21°
2026-04-27 20:01 50.01517 6.81798 35139 ft 440 kts 21°
2026-04-27 20:01 50.07006 6.86117 35139 ft 441 kts 21°
2026-04-27 20:02 50.12526 6.90475 35142 ft 440 kts 21°
2026-04-27 20:02 50.18054 6.94862 35146 ft 439 kts 21°
2026-04-27 20:03 50.23512 6.99204 35146 ft 440 kts 20°
2026-04-27 20:03 50.28932 7.03523 35148 ft 441 kts 21°
2026-04-27 20:04 50.34432 7.07926 35146 ft 439 kts 21°
2026-04-27 20:04 50.39908 7.12303 35144 ft 442 kts 20°
2026-04-27 20:05 50.45392 7.16702 35139 ft 442 kts 20°
2026-04-27 20:05 50.50892 7.21133 35142 ft 441 kts 20°
2026-04-27 20:06 50.56380 7.25562 35147 ft 441 kts 20°
2026-04-27 20:06 50.61876 7.30012 35144 ft 441 kts 20°
2026-04-27 20:07 50.67305 7.34417 35149 ft 441 kts 20°
2026-04-27 20:07 50.72773 7.38865 35150 ft 442 kts 20°
2026-04-27 20:08 50.78201 7.43300 34986 ft 434 kts 20°
2026-04-27 20:08 50.80892 7.45508 34681 ft 428 kts 20°
2026-04-27 20:08 50.83525 7.47667 34126 ft 429 kts 19°
2026-04-27 20:09 50.86195 7.49852 33678 ft 425 kts 20°
2026-04-27 20:09 50.88810 7.51997 33196 ft 424 kts 19°
2026-04-27 20:09 50.91440 7.54155 32771 ft 420 kts 20°
2026-04-27 20:09 50.94003 7.56265 32351 ft 416 kts 20°
2026-04-27 20:10 50.96607 7.58408 31869 ft 415 kts 20°
2026-04-27 20:10 50.99177 7.60527 31396 ft 413 kts 19°
2026-04-27 20:10 51.01724 7.62630 30958 ft 410 kts 20°
2026-04-27 20:10 51.04237 7.64708 30534 ft 407 kts 20°
2026-04-27 20:11 51.06719 7.66766 30084 ft 403 kts 21°
2026-04-27 20:11 51.09214 7.68832 29627 ft 400 kts 21°
2026-04-27 20:11 51.11689 7.70887 29201 ft 396 kts 21°
2026-04-27 20:11 51.13956 7.72771 28845 ft 391 kts 21°
2026-04-27 20:12 51.16372 7.74781 28379 ft 389 kts 21°
2026-04-27 20:12 51.17928 7.76079 28184 ft 384 kts 22°
2026-04-27 20:12 51.21077 7.78711 27554 ft 381 kts 22°
2026-04-27 20:12 51.23427 7.80672 27097 ft 378 kts 22°
2026-04-27 20:13 51.25751 7.82611 26697 ft 374 kts 22°
2026-04-27 20:13 51.28040 7.84524 26318 ft 369 kts 22°
2026-04-27 20:13 51.30307 7.86420 25832 ft 368 kts 22°
2026-04-27 20:13 51.32570 7.88316 25431 ft 364 kts 22°
2026-04-27 20:14 51.34764 7.90149 25061 ft 359 kts 21°
2026-04-27 20:14 51.37039 7.91750 24573 ft 354 kts 14°
2026-04-27 20:14 51.39404 7.92619 24158 ft 343 kts 360°
2026-04-27 20:14 51.41781 7.92554 23727 ft 334 kts 348°
2026-04-27 20:15 51.44054 7.91910 23306 ft 329 kts 342°
2026-04-27 20:15 51.46254 7.90804 22839 ft 323 kts 333°
2026-04-27 20:15 51.48254 7.89219 22410 ft 319 kts 329°
2026-04-27 20:15 51.50267 7.87779 22193 ft 314 kts 336°
2026-04-27 20:16 51.52338 7.86728 22192 ft 314 kts 340°
2026-04-27 20:16 51.54465 7.85771 22196 ft 322 kts 340°
2026-04-27 20:16 51.56648 7.84785 22193 ft 325 kts 340°
2026-04-27 20:16 51.58838 7.83774 22191 ft 323 kts 340°
2026-04-27 20:17 51.60981 7.82766 22192 ft 322 kts 340°
2026-04-27 20:17 51.63146 7.81740 22195 ft 322 kts 340°
2026-04-27 20:17 51.65301 7.80714 22203 ft 322 kts 340°
2026-04-27 20:17 51.66732 7.80031 22030 ft 326 kts 340°
2026-04-27 20:18 51.69614 7.78649 21625 ft 319 kts 340°
2026-04-27 20:18 51.71750 7.77625 21180 ft 318 kts 340°
2026-04-27 20:18 51.73854 7.76612 20764 ft 316 kts 341°
2026-04-27 20:18 51.75942 7.75607 20491 ft 309 kts 341°
2026-04-27 20:19 51.77961 7.74751 20378 ft 300 kts 349°
2026-04-27 20:19 51.80020 7.74346 20141 ft 292 kts 344°
2026-04-27 20:19 51.81826 7.73081 19832 ft 281 kts 320°
2026-04-27 20:19 51.83062 7.70707 19499 ft 273 kts 294°
2026-04-27 20:20 51.83466 7.67795 19156 ft 271 kts 268°
2026-04-27 20:20 51.83013 7.64840 18823 ft 270 kts 244°
2026-04-27 20:20 51.81888 7.62466 18597 ft 267 kts 224°
2026-04-27 20:20 51.80333 7.60829 18311 ft 268 kts 205°
2026-04-27 20:21 51.78508 7.60194 17961 ft 272 kts 185°
2026-04-27 20:21 51.76633 7.60392 17693 ft 271 kts 174°
2026-04-27 20:21 51.74771 7.61043 17352 ft 272 kts 166°
2026-04-27 20:21 51.73037 7.62284 16963 ft 276 kts 148°
2026-04-27 20:22 51.71599 7.64303 16669 ft 276 kts 132°
2026-04-27 20:22 51.70444 7.66780 16436 ft 273 kts 123°
2026-04-27 20:22 51.69574 7.69504 16127 ft 276 kts 108°
2026-04-27 20:22 51.69222 7.72516 15775 ft 275 kts 91°
2026-04-27 20:23 51.69314 7.75610 15508 ft 270 kts 82°
2026-04-27 20:23 51.69638 7.78607 15229 ft 271 kts 77°
2026-04-27 20:23 51.70051 7.81553 14937 ft 269 kts 76°
2026-04-27 20:23 51.70469 7.84474 14637 ft 268 kts 76°
2026-04-27 20:24 51.70882 7.87390 14320 ft 267 kts 75°
2026-04-27 20:24 51.71436 7.90236 13976 ft 266 kts 65°
2026-04-27 20:24 51.72391 7.92766 13607 ft 264 kts 47°
2026-04-27 20:24 51.73706 7.94806 13389 ft 257 kts 35°
2026-04-27 20:25 51.75209 7.96305 13091 ft 254 kts 22°
2026-04-27 20:25 51.76849 7.97310 12826 ft 249 kts 12°
2026-04-27 20:25 51.78535 7.97697 12568 ft 245 kts 358°
2026-04-27 20:25 51.80237 7.97461 12276 ft 243 kts 349°
2026-04-27 20:26 51.81878 7.96879 12037 ft 240 kts 339°
2026-04-27 20:26 51.83383 7.95655 11682 ft 241 kts 325°
2026-04-27 20:26 51.84735 7.94026 11390 ft 237 kts 319°
2026-04-27 20:26 51.85838 7.92068 11078 ft 238 kts 303°
2026-04-27 20:27 51.86613 7.89679 10756 ft 237 kts 294°
2026-04-27 20:27 51.87154 7.87167 10493 ft 236 kts 283°
2026-04-27 20:27 51.87357 7.84483 10152 ft 238 kts 271°
2026-04-27 20:27 51.87222 7.81776 9868 ft 237 kts 260°
2026-04-27 20:28 51.86868 7.79192 9628 ft 236 kts 258°
2026-04-27 20:28 51.86496 7.76574 9420 ft 236 kts 259°
2026-04-27 20:28 51.86132 7.73932 9171 ft 237 kts 259°
2026-04-27 20:28 51.85894 7.72186 8999 ft 236 kts 259°
2026-04-27 20:29 51.85844 7.68679 8556 ft 236 kts 287°
2026-04-27 20:29 51.86404 7.66228 8373 ft 231 kts 293°
2026-04-27 20:29 51.86984 7.63788 8081 ft 235 kts 290°
2026-04-27 20:29 51.87511 7.61214 7855 ft 250 kts 289°
2026-04-27 20:30 51.88050 7.58409 7591 ft 268 kts 288°
2026-04-27 20:30 51.88596 7.55512 7317 ft 271 kts 288°
2026-04-27 20:30 51.89150 7.52565 7049 ft 268 kts 288°
2026-04-27 20:30 51.89690 7.49699 6804 ft 267 kts 288°
2026-04-27 20:31 51.90234 7.46814 6542 ft 267 kts 288°
2026-04-27 20:31 51.90776 7.43931 6289 ft 267 kts 288°
2026-04-27 20:31 51.91320 7.41026 6033 ft 266 kts 288°
2026-04-27 20:31 51.91861 7.38140 5775 ft 266 kts 288°
2026-04-27 20:32 51.92402 7.35258 5529 ft 266 kts 288°
2026-04-27 20:32 51.92944 7.32368 5265 ft 265 kts 287°
2026-04-27 20:32 51.93486 7.29473 5016 ft 265 kts 287°
2026-04-27 20:32 51.94023 7.26594 4984 ft 261 kts 287°
2026-04-27 20:33 51.94549 7.23769 4975 ft 264 kts 287°
2026-04-27 20:33 51.95094 7.20840 4969 ft 265 kts 288°
2026-04-27 20:33 51.95796 7.18082 4961 ft 263 kts 301°
2026-04-27 20:33 51.97024 7.15902 4956 ft 259 kts 329°
2026-04-27 20:34 51.98679 7.14968 4959 ft 248 kts 359°
2026-04-27 20:34 52.00326 7.15371 4965 ft 235 kts 24°
2026-04-27 20:34 52.01702 7.16709 4977 ft 225 kts 39°
2026-04-27 20:34 52.02805 7.18414 4965 ft 215 kts 58°
2026-04-27 20:35 52.03348 7.20603 4991 ft 208 kts 77°
2026-04-27 20:35 52.03711 7.22907 4981 ft 211 kts 73°
2026-04-27 20:35 52.04165 7.25169 4974 ft 211 kts 71°
2026-04-27 20:35 52.04652 7.27422 4947 ft 212 kts 71°
2026-04-27 20:36 52.05147 7.29698 4764 ft 212 kts 71°
2026-04-27 20:36 52.05622 7.31893 4600 ft 203 kts 71°
2026-04-27 20:36 52.06082 7.34021 4294 ft 200 kts 71°
2026-04-27 20:36 52.06542 7.36152 4017 ft 195 kts 71°
2026-04-27 20:37 52.06985 7.38209 3761 ft 191 kts 71°
2026-04-27 20:37 52.07417 7.40209 3509 ft 186 kts 71°
2026-04-27 20:37 52.07839 7.42174 3277 ft 182 kts 71°
2026-04-27 20:37 52.08221 7.43952 3058 ft 178 kts 71°
2026-04-27 20:38 52.08456 7.45045 2964 ft 173 kts 71°
2026-04-27 20:38 52.08837 7.46820 2823 ft 164 kts 71°
2026-04-27 20:38 52.09200 7.48510 2610 ft 161 kts 71°
2026-04-27 20:38 52.09562 7.50198 2385 ft 158 kts 71°
2026-04-27 20:39 52.09914 7.51844 2164 ft 150 kts 71°
2026-04-27 20:39 52.10260 7.53440 1985 ft 148 kts 71°
2026-04-27 20:39 52.10556 7.54811 1745 ft 145 kts 71°
2026-04-27 20:39 52.10878 7.56320 1571 ft 137 kts 71°
2026-04-27 20:40 52.11184 7.57759 1400 ft 137 kts 70°
2026-04-27 20:40 52.11485 7.59169 1171 ft 127 kts 70°
2026-04-27 20:40 52.11771 7.60501 1035 ft 123 kts 70°
2026-04-27 20:40 52.12053 7.61818 880 ft 124 kts 69°
2026-04-27 20:41 52.12333 7.63145 704 ft 127 kts 69°
2026-04-27 20:41 52.12621 7.64508 525 ft 126 kts 69°
2026-04-27 20:41 52.12910 7.65857 360 ft 128 kts 69°
2026-04-27 20:41 52.13196 7.67227 190 ft 129 kts 70°
2026-04-27 20:42 52.13492 7.68538 169 ft 111 kts 69°
2026-04-27 20:42 52.13665 7.69377 168 ft 52 kts 76°
2026-04-27 20:42 52.13739 7.69779 168 ft 24 kts 68°
2026-04-27 20:42 52.13761 7.69963 168 ft 11 kts 110°
2026-04-27 20:43 52.13721 7.70023 168 ft 0 kts 154°
2026-04-27 20:43 52.13671 7.70036 168 ft 15 kts 188°
2026-04-27 20:43 52.13578 7.69872 168 ft 26 kts 250°
2026-04-27 20:44 52.13511 7.69548 168 ft 34 kts 251°
2026-04-27 20:44 52.13464 7.69330 168 ft 18 kts 252°
2026-04-27 20:44 52.13437 7.69254 168 ft 9 kts 218°
2026-04-27 20:44 52.13380 7.69218 168 ft 0 kts 200°
2026-04-27 20:45 52.13376 7.69217 168 ft 1 kts 176°
2026-04-27 20:45 52.13331 7.69268 168 ft 13 kts 146°
2026-04-27 20:45 52.13251 7.69321 168 ft 0 kts 177°
2026-04-27 20:45 52.13222 7.69326 168 ft 10 kts 177°
2026-04-27 20:46 52.13167 7.69308 168 ft 4 kts 196°
2026-04-27 20:46 52.13150 7.69299 168 ft 1 kts 197°
2026-04-27 20:46 52.13148 7.69299 168 ft 0 kts 197°